FW6790 Weather Reports


time (UTC)temp
F
wind
direction
speed
knots
gust
knots
rain 1hr
in
rain 24hr
in
rain mn
in
humidity
%
barometer
mb
20260906140653 75 27 0.9 2.6 0.00 0.06 0.06 95 1012.6
20260906140147 75 211 0.0 1.7 0.00 0.06 0.06 94 1012.6
20260906135910 75 211 0.0 1.7 0.00 0.06 0.06 94 1012.6
20260906135640 75 211 0.0 1.7 0.00 0.06 0.06 94 1012.6
20260906135136 75 311 0.9 2.6 0.00 0.06 0.06 94 1012.7
20260906134629 74 155 0.9 2.6 0.00 0.06 0.06 94 1012.7
20260906134123 74 234 0.0 2.6 0.00 0.06 0.06 95 1012.9
20260906133617 74 246 0.0 2.6 0.00 0.06 0.06 95 1012.9
20260906133111 74 246 0.9 2.6 0.00 0.06 0.06 95 1012.8
20260906132832 74 190 0.9 1.7 0.00 0.06 0.06 95 1012.7
20260906132605 74 190 0.9 1.7 0.00 0.06 0.06 95 1012.7
20260906132059 74 189 0.9 1.7 0.00 0.06 0.06 95 1012.9
20260906131553 74 194 0.9 2.6 0.00 0.06 0.06 95 1013.0
20260906131047 74 289 0.9 2.6 0.00 0.06 0.06 95 1012.9
20260906130541 73 76 0.0 1.7 0.00 0.06 0.06 95 1012.7
20260906130035 73 217 0.0 0.0 0.00 0.06 0.06 95 1012.6
20260906125751 73 217 0.0 0.9 0.00 0.06 0.06 95 1012.5
20260906125633 73 217 0.0 0.9 0.00 0.06 0.06 95 1012.5
20260906125251 73 217 0.0 1.7 0.00 0.06 0.06 94 1012.5
20260906125023 73 217 0.0 1.7 0.00 0.06 0.06 94 1012.5
20260906124517 73 217 0.0 1.7 0.00 0.06 0.06 94 1012.4
20260906124010 72 217 0.0 0.9 0.00 0.06 0.06 94 1012.3
20260906123723 72 217 0.0 0.0 0.00 0.06 0.06 94 1012.3
20260906123609 72 217 0.0 0.0 0.00 0.06 0.06 94 1012.3
20260906122959 72 217 0.0 0.9 0.01 0.06 0.06 94 1012.2
20260906122717 72 217 0.9 1.7 0.01 0.06 0.06 93 1012.1
20260906122557 72 217 0.9 1.7 0.01 0.06 0.06 93 1012.1
20260906121947 72 217 0.9 2.6 0.01 0.06 0.06 93 1012.0
20260906121442 72 240 0.0 2.6 0.01 0.06 0.06 93 1012.1
20260906120940 71 174 0.0 1.7 0.01 0.06 0.06 93 1012.0
20260906120439 71 174 0.0 1.7 0.02 0.06 0.06 92 1012.0
20260906120306 72 174 0.0 1.7 0.03 0.06 0.06 92 1012.0
20260906120157 72 174 0.0 1.7 0.03 0.06 0.06 92 1012.0
20260906115655 72 174 0.0 1.7 0.04 0.06 0.06 92 1011.8
20260906115540 72 174 0.0 1.7 0.04 0.06 0.06 92 1011.8
20260906114933 72 174 0.9 1.7 0.05 0.06 0.06 91 1011.8
20260906114434 72 174 0.9 1.7 0.05 0.06 0.06 91 1011.8
20260906113934 72 174 0.9 1.7 0.05 0.06 0.06 91 1011.9
20260906113431 73 174 0.9 1.7 0.05 0.06 0.06 92 1012.0
20260906112930 73 198 0.0 1.7 0.05 0.05 0.05 92 1012.0
20260906112427 73 198 0.9 2.6 0.05 0.05 0.05 92 1012.0
20260906112148 73 198 1.7 2.6 0.05 0.05 0.05 91 1012.0
20260906112029 73 198 1.7 2.6 0.05 0.05 0.05 91 1012.0
20260906111423 73 188 0.9 2.6 0.05 0.05 0.05 91 1012.0
20260906110921 74 201 0.0 0.9 0.05 0.05 0.05 91 1012.2
20260906110422 74 201 0.0 0.9 0.04 0.04 0.04 91 1012.1
20260906105919 74 201 0.9 2.6 0.03 0.03 0.03 91 1012.0
20260906105418 74 201 1.7 2.6 0.02 0.02 0.02 91 1011.8
20260906104915 74 205 0.9 1.7 0.01 0.01 0.02 90 1011.8
20260906104644 74 187 0.9 2.6 0.01 0.01 0.01 90 1012.0
20260906104415 74 187 0.9 2.6 0.01 0.01 0.01 90 1012.0
20260906103915 74 190 0.9 2.6 0.01 0.01 0.01 90 1012.0
20260906103413 74 189 0.9 3.5 0.01 0.01 0.01 89 1012.0
20260906103134 74 151 1.7 3.5 0.00 0.00 0.00 89 1012.0
20260906103017 74 151 1.7 3.5 0.00 0.00 0.00 89 1012.0
20260906102413 75 167 1.7 3.5 0.00 0.00 0.00 88 1012.0
20260906101913 75 186 0.9 3.5 0.00 0.00 0.00 88 1012.1
20260906101638 75 255 0.9 2.6 0.00 0.00 0.00 87 1012.3
20260906101413 75 255 0.9 2.6 0.00 0.00 0.00 87 1012.3
20260906100913 75 49 0.9 7.8 0.00 0.00 0.00 87 1012.5
20260906100412 75 26 1.7 7.8 0.00 0.00 0.00 87 1012.6
20260906095913 75 341 2.6 8.7 0.00 0.00 0.00 87 1012.9
20260906095413 75 32 3.5 8.7 0.00 0.00 0.00 86 1013.0
20260906095142 76 40 3.5 8.7 0.00 0.00 0.00 85 1013.1
20260906095017 76 40 3.5 8.7 0.00 0.00 0.00 85 1013.1
20260906094634 76 335 3.5 9.6 0.00 0.00 0.00 85 1013.1
20260906094517 76 335 3.5 9.6 0.00 0.00 0.00 85 1013.1
20260906094140 76 59 3.5 9.6 0.00 0.00 0.00 84 1013.0
20260906094017 76 59 3.5 9.6 0.00 0.00 0.00 84 1013.0
20260906093635 76 64 3.5 7.8 0.00 0.00 0.00 84 1012.9
20260906093517 76 64 3.5 7.8 0.00 0.00 0.00 84 1012.9
20260906093138 76 334 3.5 7.8 0.00 0.00 0.00 84 1012.8
20260906093018 76 334 3.5 7.8 0.00 0.00 0.00 84 1012.8
20260906092412 76 10 3.5 7.0 0.00 0.00 0.00 85 1012.7
20260906091913 76 24 2.6 6.1 0.00 0.00 0.00 86 1012.6
20260906091413 76 19 1.7 5.2 0.00 0.00 0.00 88 1012.6
20260906090913 76 21 1.7 3.5 0.00 0.00 0.00 89 1012.4
20260906090634 76 40 0.9 2.6 0.00 0.00 0.00 88 1012.1
20260906090517 76 40 0.9 2.6 0.00 0.00 0.00 88 1012.1
20260906090015 76 355 0.9 2.6 0.00 0.00 0.00 88 1012.0
20260906085410 76 171 0.0 0.9 0.00 0.00 0.00 88 1012.0
20260906084904 76 171 0.0 1.7 0.00 0.00 0.00 88 1012.0
20260906084358 76 171 0.9 2.6 0.00 0.00 0.00 88 1011.8
20260906083852 76 171 0.0 2.6 0.00 0.00 0.00 87 1011.8
20260906083608 76 139 0.0 0.9 0.00 0.00 0.00 87 1011.8
20260906083450 76 139 0.0 0.9 0.00 0.00 0.00 87 1011.8
20260906083101 76 139 0.0 0.9 0.00 0.00 0.00 87 1011.9
20260906082944 76 139 0.0 0.9 0.00 0.00 0.00 87 1011.9
20260906082334 76 139 0.0 1.7 0.00 0.00 0.00 87 1011.9
20260906081828 77 139 0.0 1.7 0.00 0.00 0.00 86 1011.7
20260906081547 77 139 0.0 1.7 0.00 0.00 0.00 85 1011.8
20260906081427 77 139 0.0 1.7 0.00 0.00 0.00 85 1011.8
20260906080816 77 81 0.0 1.7 0.00 0.00 0.00 85 1011.7
20260906080310 77 81 0.9 3.5 0.00 0.00 0.00 85 1011.7
20260906075808 77 51 0.9 3.5 0.00 0.00 0.00 84 1011.9
20260906075307 77 73 0.9 3.5 0.00 0.00 0.00 85 1011.9
20260906074806 78 52 0.9 4.3 0.00 0.00 0.00 85 1012.0
20260906074246 78 57 0.0 4.3 0.00 0.00 0.00 87 1012.0
20260906073740 78 73 0.9 6.1 0.00 0.00 0.00 87 1011.9
20260906073455 78 5 0.9 6.1 0.00 0.00 0.00 88 1012.0
20260906073234 78 5 0.9 6.1 0.00 0.00 0.00 88 1012.0
20260906072953 79 145 0.0 1.7 0.00 0.00 0.00 89 1012.0
20260906072832 79 145 0.0 1.7 0.00 0.00 0.00 89 1012.0
20260906072448 79 144 0.0 1.7 0.00 0.00 0.00 89 1012.0
20260906072327 79 144 0.0 1.7 0.00 0.00 0.00 89 1012.0
20260906071715 79 196 0.0 0.0 0.00 0.00 0.00 89 1011.9
20260906071210 79 196 0.0 0.0 0.00 0.00 0.00 89 1011.9
20260906070704 79 196 0.0 0.9 0.00 0.00 0.00 88 1011.9
20260906070158 79 196 0.0 1.7 0.00 0.00 0.00 88 1011.8
20260906065651 79 196 0.0 1.7 0.00 0.00 0.00 88 1011.8
20260906065146 79 196 0.0 0.0 0.00 0.00 0.00 88 1011.8
20260906064640 79 196 0.0 0.0 0.00 0.00 0.00 88 1011.7
20260906064134 79 196 0.0 1.7 0.00 0.00 0.00 88 1011.8
20260906063852 79 196 0.0 1.7 0.00 0.00 0.00 87 1011.8
20260906063628 79 196 0.0 1.7 0.00 0.00 0.00 87 1011.8
20260906063339 80 226 0.0 1.7 0.00 0.00 0.00 87 1011.9
20260906063227 80 226 0.0 1.7 0.00 0.00 0.00 87 1011.9
20260906062616 80 302 0.9 1.7 0.00 0.00 0.00 87 1011.9
20260906062110 80 338 0.9 1.7 0.00 0.00 0.00 87 1012.0
20260906061604 80 61 0.0 1.7 0.00 0.00 0.00 87 1011.9
20260906061316 80 61 0.0 1.7 0.00 0.00 0.00 87 1011.7
20260906061203 80 61 0.0 1.7 0.00 0.00 0.00 87 1011.7
20260906060552 80 61 0.9 1.7 0.00 0.00 0.00 87 1011.8
20260906060046 80 73 0.9 1.7 0.00 0.00 0.00 87 1011.8
20260906055759 80 355 0.9 3.5 0.00 0.00 0.00 87 1011.9
20260906055644 80 355 0.9 3.5 0.00 0.00 0.00 87 1011.9
20260906055034 80 44 0.9 3.5 0.00 0.00 0.00 87 1011.9
20260906054744 80 13 0.9 3.5 0.00 0.00 0.00 87 1011.9
20260906054632 80 13 0.9 3.5 0.00 0.00 0.00 87 1011.9
20260906054022 80 355 0.9 2.6 0.00 0.00 0.00 87 1012.0
20260906053741 80 44 1.7 4.3 0.00 0.00 0.00 87 1012.0
20260906053516 80 44 1.7 4.3 0.00 0.00 0.00 87 1012.0
20260906053010 80 311 0.9 4.3 0.00 0.00 0.00 87 1012.0
20260906052504 80 59 0.9 4.3 0.00 0.00 0.00 87 1012.0
20260906051958 80 193 0.9 4.3 0.00 0.00 0.00 87 1012.0
20260906051452 80 126 0.9 1.7 0.00 0.00 0.00 87 1012.0
20260906050946 80 224 0.9 3.5 0.00 0.00 0.00 87 1012.3
20260906050440 80 171 0.9 3.5 0.00 0.00 0.00 87 1012.3
20260906045935 80 155 0.9 3.5 0.00 0.00 0.00 87 1012.5
20260906045429 80 103 0.0 0.9 0.00 0.00 0.00 87 1012.4
20260906044923 80 103 0.0 0.0 0.00 0.00 0.00 87 1012.3
20260906044417 80 103 0.0 0.9 0.00 0.00 0.00 86 1012.6
20260906043911 80 103 0.0 0.9 0.00 0.00 0.00 86 1012.4
20260906043406 80 57 0.0 1.7 0.00 0.00 0.00 86 1012.5
20260906043122 80 57 0.0 1.7 0.00 0.00 0.00 86 1012.5
20260906043003 80 57 0.0 1.7 0.00 0.00 0.00 86 1012.5
20260906042612 80 142 0.9 1.7 0.00 0.00 0.00 85 1012.4
20260906042457 80 142 0.9 1.7 0.00 0.00 0.00 85 1012.4
20260906042114 80 142 0.9 1.7 0.00 0.00 0.00 85 1012.4
20260906041847 80 142 0.9 1.7 0.00 0.00 0.00 85 1012.4
20260906041606 81 155 0.0 0.9 0.00 0.00 0.00 85 1012.5
20260906041445 81 155 0.0 0.9 0.00 0.00 0.00 85 1012.5
20260906040835 81 155 0.0 0.9 0.00 0.00 0.00 85 1012.5
20260906040555 81 155 0.0 0.9 0.00 0.00 0.00 85 1012.5
20260906040434 81 155 0.0 0.9 0.00 0.00 0.00 85 1012.5
20260906035823 81 155 0.0 0.9 0.00 0.00 0.00 84 1012.4
20260906035543 81 155 0.0 0.9 0.00 0.00 0.00 84 1012.7
20260906035317 81 155 0.0 0.9 0.00 0.00 0.00 84 1012.7
20260906035033 81 155 0.0 0.9 0.00 0.00 0.00 84 1012.7
20260906034916 81 155 0.0 0.9 0.00 0.00 0.00 84 1012.7
20260906034305 81 155 0.0 1.7 0.00 0.00 0.00 84 1012.8
20260906033759 81 155 0.9 3.5 0.00 0.00 0.00 84 1012.8
20260906033259 81 336 1.7 4.3 0.00 0.00 0.00 84 1012.9
20260906032759 81 195 0.9 4.3 0.00 0.00 0.00 84 1012.9
20260906032259 81 169 0.9 3.5 0.00 0.00 0.00 85 1013.0
20260906032020 81 261 1.7 6.1 0.00 0.00 0.00 85 1013.0
20260906031759 81 261 1.7 6.1 0.00 0.00 0.00 85 1013.0
20260906031523 80 193 0.9 6.1 0.00 0.00 0.00 85 1013.1
20260906031259 80 193 0.9 6.1 0.00 0.00 0.00 85 1013.1
20260906030800 80 143 0.0 2.6 0.00 0.00 0.00 85 1013.1
20260906030259 80 187 0.0 3.5 0.00 0.00 0.00 85 1012.8
20260906030025 80 86 0.0 3.5 0.00 0.00 0.00 85 1012.8
20260906025759 80 86 0.0 3.5 0.00 0.00 0.00 85 1012.8
20260906025259 80 188 0.0 1.7 0.00 0.00 0.00 84 1012.2
20260906025023 80 188 0.0 0.9 0.00 0.00 0.00 84 1012.2
20260906024757 80 188 0.0 0.9 0.00 0.00 0.00 84 1012.2
20260906024255 80 188 0.0 0.9 0.00 0.00 0.00 83 1012.0
20260906024023 80 188 0.0 0.0 0.00 0.00 0.00 83 1012.0
20260906023755 80 188 0.0 0.0 0.00 0.00 0.00 83 1012.0
20260906023256 80 188 0.0 0.0 0.00 0.00 0.00 82 1012.1
20260906022753 80 188 0.0 0.9 0.00 0.00 0.00 83 1012.0
20260906022253 80 188 0.9 1.7 0.00 0.00 0.00 83 1012.0
20260906021753 80 188 0.9 1.7 0.00 0.00 0.00 83 1012.1
20260906021523 81 188 0.9 1.7 0.00 0.00 0.00 83 1012.0
20260906021355 81 188 0.9 1.7 0.00 0.00 0.00 83 1012.0
20260906021016 81 188 0.9 1.7 0.00 0.00 0.00 82 1012.0
20260906020855 81 188 0.9 1.7 0.00 0.00 0.00 82 1012.0
20260906020251 81 188 0.9 1.7 0.00 0.00 0.00 82 1011.9
20260906015752 81 188 0.0 1.7 0.00 0.00 0.00 82 1011.8
20260906015256 81 188 0.0 0.9 0.00 0.00 0.00 81 1011.8
20260906014751 81 188 0.0 0.0 0.00 0.00 0.00 81 1011.8
20260906014251 81 188 0.0 0.0 0.00 0.00 0.00 81 1011.8
20260906013751 81 188 0.0 0.9 0.00 0.00 0.00 81 1011.7
20260906013252 81 188 0.0 0.9 0.00 0.00 0.00 81 1011.5
20260906012751 81 188 0.9 1.7 0.00 0.00 0.00 80 1011.4
20260906012251 81 188 0.9 1.7 0.00 0.00 0.00 81 1011.2
20260906012010 81 245 0.0 1.7 0.00 0.00 0.00 80 1011.2
20260906011851 81 245 0.0 1.7 0.00 0.00 0.00 80 1011.2
20260906011517 82 245 0.0 1.7 0.00 0.00 0.00 79 1011.0
20260906011247 82 245 0.0 1.7 0.00 0.00 0.00 79 1011.0
20260906011018 82 245 0.9 1.7 0.00 0.00 0.00 79 1010.9
20260906010747 82 245 0.9 1.7 0.00 0.00 0.00 79 1010.9
20260906010247 82 256 0.9 1.7 0.00 0.00 0.00 78 1010.8
20260906005747 82 211 0.9 1.7 0.00 0.00 0.00 77 1010.7
20260906005513 82 198 1.7 3.5 0.00 0.00 0.00 77 1010.7
20260906005351 82 198 1.7 3.5 0.00 0.00 0.00 77 1010.7
20260906004746 82 196 1.7 3.5 0.00 0.00 0.00 76 1010.6
20260906004247 83 180 0.9 2.6 0.00 0.00 0.00 76 1010.5
20260906003747 83 166 0.9 2.6 0.00 0.00 0.00 76 1010.6
20260906003246 83 166 0.9 2.6 0.00 0.00 0.00 75 1010.6
20260906002739 83 166 0.0 2.6 0.00 0.00 0.00 75 1010.5
20260906002233 84 166 0.0 0.0 0.00 0.00 0.00 74 1010.6
20260906001726 84 166 0.9 2.6 0.00 0.00 0.00 74 1010.5
20260906001220 84 166 1.7 2.6 0.00 0.00 0.00 74 1010.5
20260906000714 85 166 1.7 2.6 0.00 0.00 0.00 74 1010.6
20260906000208 85 166 1.7 2.6 0.00 0.00 0.00 73 1010.6
20260905235702 85 197 0.9 1.7 0.00 0.00 0.00 73 1010.6
20260905235156 86 191 0.9 1.7 0.00 0.00 0.00 72 1010.7
20260905234650 87 191 0.9 1.7 0.00 0.00 0.00 72 1010.7
20260905234422 87 191 0.9 1.7 0.00 0.00 0.00 71 1010.8
20260905234144 87 191 0.9 1.7 0.00 0.00 0.00 71 1010.8
20260905233637 88 191 0.9 1.7 0.00 0.00 0.00 69 1010.8
20260905233131 88 191 0.9 1.7 0.00 0.00 0.00 68 1010.8
20260905232624 89 191 0.9 1.7 0.00 0.00 0.00 68 1010.8
20260905232119 89 191 0.9 1.7 0.00 0.00 0.00 65 1010.8
20260905231613 90 191 0.9 1.7 0.00 0.00 0.00 64 1010.7
20260905231106 91 191 0.9 1.7 0.00 0.00 0.00 63 1010.6
20260905230822 92 191 0.9 1.7 0.00 0.00 0.00 61 1010.6
20260905230705 92 191 0.9 1.7 0.00 0.00 0.00 61 1010.6
20260905230054 93 191 0.9 1.7 0.00 0.00 0.00 59 1010.7
20260905225548 94 179 0.9 1.7 0.00 0.00 0.00 58 1010.7
20260905225042 94 178 0.9 1.7 0.00 0.00 0.00 58 1010.7
20260905224756 94 178 0.9 1.7 0.00 0.00 0.00 57 1010.7
20260905224641 94 178 0.9 1.7 0.00 0.00 0.00 57 1010.7
20260905224030 95 138 0.9 1.7 0.00 0.00 0.00 56 1010.7
20260905223524 95 157 0.9 2.6 0.00 0.00 0.00 56 1010.7
20260905223018 95 355 0.0 1.7 0.00 0.00 0.00 53 1010.5
20260905222838 96 355 0.9 1.7 0.00 0.00 0.00 53 1010.6
20260905222731 96 355 0.9 1.7 0.00 0.00 0.00 53 1010.6
20260905222006 96 297 0.9 1.7 0.00 0.00 0.00 51 1010.6
20260905221500 96 191 0.9 1.7 0.00 0.00 0.00 52 1010.6
20260905221226 96 191 0.9 1.7 0.00 0.00 0.00 55 1010.6
20260905221059 96 191 0.9 1.7 0.00 0.00 0.00 55 1010.6
20260905220811 96 191 1.7 2.6 0.00 0.00 0.00 54 1010.6
20260905220708 96 191 1.7 2.6 0.00 0.00 0.00 54 1010.6
20260905215942 97 200 1.7 2.6 0.00 0.00 0.00 54 1010.6
20260905215435 97 175 0.9 2.6 0.00 0.00 0.00 54 1010.6
20260905215156 97 175 0.0 1.7 0.00 0.00 0.00 52 1010.6
20260905214931 97 175 0.0 1.7 0.00 0.00 0.00 52 1010.6
20260905214424 97 53 1.7 7.0 0.00 0.00 0.00 49 1010.6
20260905213918 97 51 2.6 7.0 0.00 0.00 0.00 51 1010.5
20260905213647 97 22 0.9 4.3 0.00 0.00 0.00 50 1010.7
20260905213417 97 22 0.9 4.3 0.00 0.00 0.00 50 1010.7
20260905212915 97 292 0.9 2.6 0.00 0.00 0.00 49 1010.7
20260905212414 97 292 0.9 2.6 0.00 0.00 0.00 49 1010.7
20260905212118 97 334 0.9 2.6 0.00 0.00 0.00 47 1010.8
20260905211958 97 334 0.9 2.6 0.00 0.00 0.00 47 1010.8
20260905211348 97 296 0.9 1.7 0.00 0.00 0.00 49 1010.9
20260905210842 97 284 1.7 4.3 0.00 0.00 0.00 49 1010.9
20260905210336 96 355 2.6 6.1 0.00 0.00 0.00 49 1010.9
20260905205830 97 335 1.7 6.1 0.00 0.00 0.00 49 1010.9
20260905205648 97 346 1.7 3.5 0.00 0.00 0.00 48 1011.0
20260905205554 97 346 1.7 3.5 0.00 0.00 0.00 48 1011.0
20260905205050 96 165 1.7 3.5 0.00 0.00 0.00 48 1011.0
20260905204818 96 165 1.7 3.5 0.00 0.00 0.00 48 1011.0
20260905204312 96 75 1.7 6.1 0.00 0.00 0.00 49 1011.1
20260905203805 96 340 2.6 7.0 0.00 0.00 0.00 50 1011.1
20260905203300 96 324 1.7 7.0 0.00 0.00 0.00 50 1011.2
20260905202755 96 346 0.9 3.5 0.00 0.00 0.00 52 1011.1
20260905202352 96 143 0.9 3.5 0.00 0.00 0.00 51 1011.2
20260905202005 95 290 0.9 1.7 0.00 0.00 0.00 54 1011.2
20260905201742 95 290 0.9 1.7 0.00 0.00 0.00 54 1011.2
20260905201243 95 175 0.9 2.6 0.00 0.00 0.00 53 1011.3
20260905201011 95 63 1.7 3.5 0.00 0.00 0.00 51 1011.3
20260905200742 95 63 1.7 3.5 0.00 0.00 0.00 51 1011.3
20260905200242 95 18 1.7 4.3 0.00 0.00 0.00 50 1011.3
20260905195740 95 318 1.7 4.3 0.00 0.00 0.00 50 1011.3
20260905195240 95 190 1.7 3.5 0.00 0.00 0.00 57 1011.4
20260905194741 95 190 0.9 3.5 0.00 0.00 0.00 58 1011.5
20260905194507 95 161 0.9 3.5 0.00 0.00 0.00 48 1011.6
20260905193740 96 128 0.9 3.5 0.00 0.00 0.00 49 1011.6
20260905193239 96 105 0.9 3.5 0.00 0.00 0.00 50 1011.7
20260905192738 96 126 0.9 3.5 0.00 0.00 0.00 49 1011.8
20260905192236 96 80 0.9 3.5 0.00 0.00 0.00 49 1011.8
20260905191737 96 271 0.9 3.5 0.00 0.00 0.00 51 1011.8
20260905191338 96 5 1.7 3.5 0.00 0.00 0.00 49 1011.8
20260905190734 96 24 1.7 4.3 0.00 0.00 0.00 49 1011.9
20260905190235 97 343 0.9 4.3 0.00 0.00 0.00 49 1012.0
20260905185734 97 315 1.7 3.5 0.00 0.00 0.00 49 1012.1
20260905185234 96 28 1.7 5.2 0.00 0.00 0.00 48 1012.2
20260905184734 96 142 1.7 5.2 0.00 0.00 0.00 49 1012.2
20260905184234 95 225 0.9 3.5 0.00 0.00 0.00 49 1012.3
20260905183957 94 179 1.7 5.2 0.00 0.00 0.00 51 1012.5
20260905183734 94 179 1.7 5.2 0.00 0.00 0.00 51 1012.5
20260905183233 94 160 1.7 5.2 0.00 0.00 0.00 53 1012.5
20260905182952 94 27 1.7 5.2 0.00 0.00 0.00 53 1012.6
20260905182839 94 27 1.7 5.2 0.00 0.00 0.00 53 1012.6
20260905182234 94 340 1.7 5.2 0.00 0.00 0.00 55 1012.7
20260905181733 93 203 1.7 3.5 0.00 0.00 0.00 56 1012.8
20260905181234 93 211 1.7 3.5 0.00 0.00 0.00 62 1012.9
20260905180734 93 210 0.9 3.5 0.00 0.00 0.00 60 1013.0
20260905180234 93 114 0.9 3.5 0.00 0.00 0.00 58 1013.1
20260905175959 93 225 0.9 4.3 0.00 0.00 0.00 55 1013.2
20260905175839 93 225 0.9 4.3 0.00 0.00 0.00 55 1013.2
20260905175232 94 273 1.7 7.8 0.00 0.00 0.00 54 1013.2
20260905175003 94 36 2.6 7.8 0.00 0.00 0.00 54 1013.2
20260905174732 94 36 2.6 7.8 0.00 0.00 0.00 54 1013.2
20260905174602 94 201 1.7 5.2 0.00 0.00 0.00 55 1013.3
20260905174501 94 201 1.7 5.2 0.00 0.00 0.00 55 1013.3
20260905173732 93 111 1.7 3.5 0.00 0.00 0.00 56 1013.4
20260905173230 93 90 1.7 6.1 0.00 0.00 0.00 56 1013.5
20260905172730 93 300 2.6 6.1 0.00 0.00 0.00 57 1013.4
20260905172450 93 15 1.7 6.1 0.00 0.00 0.00 57 1013.5
20260905172334 93 15 1.7 6.1 0.00 0.00 0.00 57 1013.5
20260905171723 94 312 0.9 4.3 0.00 0.00 0.00 56 1013.5
20260905171438 93 115 1.7 4.3 0.00 0.00 0.00 57 1013.7
20260905171321 93 115 1.7 4.3 0.00 0.00 0.00 57 1013.7
20260905170711 93 158 1.7 3.5 0.00 0.00 0.00 57 1013.8
20260905170205 93 317 1.7 3.5 0.00 0.00 0.00 61 1013.8
20260905170021 92 181 0.9 6.1 0.00 0.00 0.00 60 1013.9
20260905165927 92 181 0.9 6.1 0.00 0.00 0.00 60 1013.9
20260905165421 92 15 1.7 6.1 0.00 0.00 0.00 58 1013.9
20260905165153 92 15 1.7 6.1 0.00 0.00 0.00 58 1013.9
20260905164647 92 193 2.6 7.8 0.00 0.00 0.00 59 1014.0
20260905164141 92 330 2.6 7.8 0.00 0.00 0.00 60 1014.0
20260905163635 92 297 1.7 4.3 0.00 0.00 0.00 61 1014.0
20260905163349 92 68 1.7 4.3 0.00 0.00 0.00 60 1014.1
20260905163233 92 68 1.7 4.3 0.00 0.00 0.00 60 1014.1
20260905162623 92 84 1.7 7.0 0.00 0.00 0.00 61 1014.1
20260905162118 91 350 1.7 7.0 0.00 0.00 0.00 60 1014.1
20260905161611 91 26 2.6 6.1 0.00 0.00 0.00 61 1014.1
20260905161105 91 26 2.6 6.1 0.00 0.00 0.00 60 1014.1
20260905160559 91 329 1.7 6.1 0.00 0.00 0.00 61 1014.1
20260905160315 91 28 1.7 6.1 0.00 0.00 0.00 60 1014.1
20260905160053 91 28 1.7 6.1 0.00 0.00 0.00 60 1014.1
20260905155547 90 0 1.7 3.5 0.00 0.00 0.00 64 1014.2
20260905155041 90 5 1.7 5.2 0.00 0.00 0.00 63 1014.2
20260905154535 89 40 1.7 5.2 0.00 0.00 0.00 64 1014.1
20260905154029 89 355 1.7 4.3 0.00 0.00 0.00 63 1014.2
20260905153524 89 45 1.7 3.5 0.00 0.00 0.00 65 1014.2
20260905153017 88 46 2.6 5.2 0.00 0.00 0.00 65 1014.2
20260905152615 88 0 2.6 6.1 0.00 0.00 0.00 65 1014.2
20260905152006 88 16 2.6 6.1 0.00 0.00 0.00 65 1014.3
20260905151459 87 23 1.7 6.1 0.00 0.00 0.00 66 1014.3
20260905150953 87 49 1.7 5.2 0.00 0.00 0.00 67 1014.2
20260905150447 86 291 1.7 7.0 0.00 0.00 0.00 69 1014.3
20260905145942 86 105 1.7 7.0 0.00 0.00 0.00 70 1014.3
20260905145657 85 81 1.7 4.3 0.00 0.00 0.00 70 1014.3
20260905145435 85 81 1.7 4.3 0.00 0.00 0.00 70 1014.3
20260905144929 85 42 1.7 3.5 0.00 0.00 0.00 71 1014.2
20260905144423 84 160 1.7 4.3 0.00 0.00 0.00 74 1014.3
20260905143917 83 21 1.7 4.3 0.00 0.00 0.00 75 1014.4
20260905143411 83 25 0.9 4.3 0.00 0.00 0.00 77 1014.4
20260905142905 82 50 0.9 2.6 0.00 0.00 0.00 80 1014.4
20260905142503 82 56 0.9 4.3 0.00 0.00 0.00 81 1014.4
20260905141852 81 355 0.9 4.3 0.00 0.00 0.00 83 1014.3
20260905141451 80 28 0.9 2.6 0.00 0.00 0.00 85 1014.3